Погода в Советском

Россия / Республика Северная Осетия — Алания     43°11′35″N   43°53′41″E
темп.,
°C
ветер,
м/с
пор.,
м/с
влажн.,
%
обл.,
%
осадки,
мм/ч
давл.,
гПа
погр.,
м
23 апреля, пт
пт2300:00+8ссз1295100 3.6 1023224
03:00+8ююз2395100 6.6 1023182
06:00+9зюз2391100 3.4 1025102
09:00+10юз237899 5.1 1025469
12:00+15всв22496 0.0 10231521
15:00+16всв324734 0.0 10221531
18:00+14в22619 0.0 102267
21:00+10ю227065 0.0 102118
24 апреля, сб
сб2400:00+8юз2272100 0.0 102016
03:00+8з226472 0.0 101912
06:00+8зюз226795 0.0 102021
09:00+14ссв11565 0.0 1019630
12:00+17ссв325081 0.0 10181204
15:00+17ссв325069 0.0 10181534
18:00+14ссз1267100 0.0 101928
21:00+13сз1172100 0.0 102025
25 апреля, вс
вс2500:00+12сз1175100 0.0 102012
03:00+11сз227899 0.0 102149
06:00+10ссз238591 0.0 1021357
09:00+11ссв3386100 0.1 1021543
12:00+12с2382100 0.1 1019682
15:00+13всв1372100 0.2 1017773
18:00+14з117483 0.0 101580
21:00+12з118292 0.0 101530
26 апреля, пн
пн2600:00+9сз019051 0.0 101511
03:00+10юв129169 0.6 101450
06:00+8в0194100 0.1 101578
09:00+11с228196 0.1 1013566
12:00+15ссв116998 0.1 1011689
15:00+15ссв3373100 1.1 1011815
18:00+12юз1184100 0.3 101239
21:00+9с2597100 7.8 1015286
27 апреля, вт
вт2700:00+9ссв0198100 1.7 101678
03:00+9ссв0197100 1.8 1015139
06:00+9ссв1298100 0.1 1016229
09:00+9с3498100 1.1 1018387
12:00+7с2497100 1.0 1019333
15:00+8всв1193100 1.2 1019400
18:00+8св0094100 0.0 1020141
21:00+8в1195100 0.0 102066